Wind_Speed
17 17 16 16 16 15 14 14 14 14 13 13 13 12 12 13 13 13 14 14 14 15 15 14 14 13 13 13 14 14 14 14 13 13 12 13 13 14 14 14 13 12 13 13 13 14 14 14 14 13 13 13 13 13 14 14 15 15 15 15 16 17 16 15 14 10 9 11 12 11 11 11 9 10 10 9 9 9 10 10 9 9 12 12 11
18 17 18 17 17 15 15 15 15 14 14 14 14 14 14 14 14 14 14 14 14 14 14 14 14 14 14 14 14 15 14 14 14 14 13 13 14 14 14 14 14 13 13 13 14 14 15 15 14 13 13 13 12 13 14 14 15 14 14 14 14 16 16 14 13 11 9 10 12 12 12 11 10 10 10 10 11 11 12 12 11 10 11 12 14
19 19 19 18 16 16 16 17 17 16 16 15 15 15 15 15 15 15 15 15 15 15 15 15 15 15 15 15 15 16 16 15 14 14 14 14 14 14 14 14 14 14 13 13 14 14 15 14 14 14 13 13 12 13 13 14 14 14 14 15 15 16 17 16 15 14 13 12 13 13 13 12 12 12 11 11 12 12 12 13 12 12 11 11 13
21 22 22 19 18 18 18 19 19 18 17 16 16 16 16 16 17 16 16 16 16 16 16 17 17 17 17 17 17 17 17 17 17 16 16 16 15 14 15 15 15 14 14 14 14 14 15 14 14 14 14 14 13 13 13 13 14 15 15 16 16 16 16 17 16 15 14 13 13 14 14 14 13 14 13 13 13 13 14 13 12 13 13 13 14
22 20 20 19 18 20 21 22 22 21 19 18 18 18 17 17 17 17 17 17 17 17 18 18 18 18 18 18 18 18 18 18 19 18 17 17 17 16 16 16 16 16 15 15 15 16 16 15 15 15 16 15 14 14 14 14 15 16 16 16 16 15 16 16 17 16 14 13 13 13 14 15 14 15 15 15 15 15 15 15 14 15 15 15 16
21 18 18 19 19 22 23 21 20 19 19 20 21 22 21 19 18 18 18 18 18 18 18 19 18 19 19 19 19 19 19 19 20 19 19 18 18 17 17 17 17 17 17 16 17 17 17 17 16 16 17 16 16 16 15 16 16 16 16 16 16 16 16 16 16 16 15 15 15 14 15 16 16 15 16 16 16 16 16 16 17 18 17 16 16
24 22 22 22 22 23 23 20 17 17 18 19 20 22 23 21 20 19 19 19 19 19 19 19 19 19 19 19 20 20 20 20 20 20 20 19 19 18 18 18 18 18 17 17 18 18 18 18 17 17 17 17 17 18 17 17 17 17 17 16 16 17 17 17 16 17 17 16 16 16 16 17 17 17 16 16 17 17 17 16 16 17 17 15 15
27 26 26 25 25 24 23 21 20 19 19 20 20 22 22 21 20 21 20 20 20 21 20 20 20 20 20 20 20 20 20 21 21 21 21 20 20 19 19 19 19 19 19 19 18 18 18 19 19 19 18 18 19 19 18 18 18 18 18 17 18 19 19 18 18 18 17 17 17 17 17 18 18 18 16 16 16 17 17 16 14 13 13 12 14
30 29 28 28 28 27 26 24 23 23 22 23 23 23 23 23 23 24 24 22 21 21 20 19 19 21 21 20 20 21 22 23 24 23 22 22 22 21 20 19 19 20 21 20 19 19 19 20 20 19 18 18 18 19 18 18 18 18 18 18 19 21 21 20 21 20 18 18 18 18 18 18 19 18 16 16 16 17 17 16 14 13 12 11 14
32 31 31 30 29 29 29 27 25 25 24 25 25 24 24 25 26 27 24 22 21 21 21 20 20 22 23 21 22 23 24 24 23 23 23 23 22 21 21 21 20 20 21 21 20 20 20 21 19 18 19 19 18 17 17 18 19 20 20 20 21 22 22 22 22 22 21 20 20 20 19 19 19 18 17 17 18 18 18 17 16 14 13 14 16
35 34 33 33 31 30 30 28 27 26 25 26 25 24 25 26 28 30 27 23 23 24 23 23 23 24 25 25 26 26 24 22 23 23 24 24 22 21 22 22 21 22 22 21 21 22 22 23 21 20 20 19 18 18 17 18 19 20 21 22 23 24 23 23 23 24 24 22 21 21 21 20 20 20 19 19 20 20 20 20 18 16 16 17 18
36 37 36 34 32 30 29 28 27 27 27 27 26 25 26 26 28 30 29 28 29 27 25 25 26 26 27 28 30 29 25 23 24 23 23 24 23 23 23 23 23 23 22 21 22 22 22 23 23 22 22 20 20 20 20 20 20 20 21 22 23 24 24 25 25 26 26 25 24 23 22 22 21 20 21 21 21 22 22 22 21 20 19 18 18
28 33 36 37 35 32 28 26 26 26 27 28 28 28 27 26 27 29 29 30 32 31 29 30 30 29 28 29 31 32 30 28 27 26 24 23 23 24 25 25 25 24 23 23 24 23 22 22 22 23 23 23 22 22 22 23 23 22 22 22 23 24 25 26 27 27 28 28 27 25 24 24 23 22 22 22 21 22 23 23 23 22 21 19 18
12 15 21 25 27 27 24 22 21 21 22 24 25 26 26 26 27 29 29 30 32 33 33 33 31 29 30 31 32 34 34 32 31 29 27 25 24 25 26 28 28 27 24 25 26 25 25 24 23 23 25 26 25 24 24 24 24 23 22 22 22 24 24 25 26 28 28 28 27 26 24 25 26 25 24 23 22 23 23 23 23 23 22 21 20
6 7 7 7 9 11 12 11 12 14 15 17 19 21 23 25 26 29 30 31 32 32 33 34 32 31 31 33 34 36 36 34 33 33 32 30 28 27 28 28 29 29 27 26 26 26 26 26 25 25 25 26 26 26 25 24 24 25 24 24 25 25 24 25 25 26 26 24 25 26 25 25 26 27 26 24 24 25 24 23 23 23 23 23 21
5 5 5 4 4 5 5 6 10 13 13 13 14 16 18 20 21 24 28 31 33 33 32 33 33 33 34 36 37 38 36 34 34 34 34 33 32 31 30 30 30 30 29 29 29 29 29 29 28 27 26 26 25 25 26 25 26 26 26 26 27 27 25 24 23 24 24 24 23 25 26 26 26 27 28 27 26 27 26 24 23 23 25 25 24
10 9 7 6 5 4 5 8 11 13 13 12 12 12 12 13 14 15 18 23 27 30 31 34 35 37 39 40 41 39 36 35 35 34 34 35 35 34 33 32 32 31 31 31 32 32 32 33 31 29 29 29 27 26 26 26 26 27 26 27 28 28 25 24 23 23 24 24 25 25 27 27 28 29 29 27 27 29 29 26 23 23 26 26 25
11 11 10 8 7 7 8 10 11 12 12 12 10 7 7 8 9 10 11 14 19 24 29 33 36 38 42 43 42 39 38 37 36 34 34 35 35 36 35 34 33 31 30 30 32 32 32 33 32 31 30 30 30 28 27 27 27 27 27 27 28 27 24 23 23 24 25 25 26 27 28 30 31 32 33 30 29 33 33 28 25 25 27 27 27
3 6 9 9 8 7 8 8 9 11 12 11 9 7 5 5 6 8 9 10 14 17 20 25 31 37 41 42 40 39 39 39 38 38 37 36 36 36 36 35 33 32 31 30 30 31 31 32 32 31 30 30 29 27 27 28 28 28 28 28 28 27 25 24 24 25 26 27 28 29 31 33 33 34 34 32 33 36 35 31 28 27 28 28 28
2 3 4 3 3 3 4 5 6 8 9 9 8 7 7 7 8 9 10 11 12 13 13 16 22 29 32 34 36 38 39 40 40 40 39 37 37 36 35 34 33 32 32 32 32 32 32 32 31 30 28 28 27 26 26 28 28 29 29 29 29 28 27 26 26 28 29 29 31 33 35 35 34 34 34 32 34 35 34 33 32 31 30 30 31
2 2 2 3 2 3 4 4 3 3 3 3 3 3 3 4 4 5 7 8 10 11 11 10 12 16 19 23 26 29 33 37 39 39 37 36 36 35 34 32 32 33 32 32 32 33 33 32 31 28 26 26 26 25 27 28 28 28 29 30 30 30 30 30 30 31 32 33 35 37 37 35 34 33 33 32 33 34 32 32 33 32 31 32 33
2 2 2 2 3 4 5 5 4 3 3 3 3 2 3 3 2 3 4 5 7 8 8 7 9 13 17 18 18 21 24 26 29 32 33 32 32 33 33 32 32 32 32 31 30 31 32 32 31 29 27 26 26 25 25 26 27 28 29 30 31 32 33 33 33 34 35 36 37 36 35 34 32 31 31 31 32 33 32 30 30 31 32 34 35
4 4 4 4 5 5 6 5 5 6 6 6 6 6 6 6 6 6 6 7 7 8 9 8 7 9 12 14 15 19 22 20 15 17 23 24 24 25 28 28 27 25 26 27 27 28 30 30 31 32 31 30 29 28 28 29 30 31 32 32 33 33 34 34 35 36 36 35 34 33 32 31 31 30 30 29 30 33 32 30 30 33 34 34 36
4 3 4 4 4 5 5 6 7 8 9 9 10 10 10 9 9 9 9 9 8 8 8 9 8 8 8 9 9 8 11 15 14 12 16 19 21 23 27 30 29 25 24 25 27 29 31 33 33 35 36 36 34 33 31 31 31 33 33 34 34 34 34 35 35 35 34 32 32 31 30 30 31 31 30 30 30 32 32 32 35 37 36 34 35
2 1 2 2 3 4 4 5 6 7 8 9 9 10 10 10 10 10 10 9 9 9 9 9 9 10 9 9 10 9 8 9 10 10 11 13 17 21 25 29 32 32 30 29 29 31 34 36 37 38 39 40 39 36 33 31 30 31 31 31 32 33 33 34 34 34 34 33 32 31 30 30 30 31 31 30 30 30 31 32 35 37 36 35 35
2 1 1 1 1 2 2 3 4 4 5 6 6 7 7 7 7 7 8 8 8 9 10 11 12 13 13 12 12 11 9 8 7 7 8 9 10 11 12 15 19 23 26 27 28 28 29 31 32 32 33 34 33 33 32 31 30 29 28 28 28 30 31 32 32 33 33 32 31 29 29 30 30 30 29 28 28 29 31 33 34 36 37 36 32
2 2 2 2 2 2 1 1 1 2 2 3 4 4 4 4 4 5 5 6 6 8 9 10 12 13 13 14 14 14 14 12 11 10 10 9 9 8 8 8 10 11 14 17 20 22 23 24 24 25 25 26 26 26 26 27 27 26 26 24 24 25 26 27 27 28 28 28 27 26 26 26 27 27 26 25 27 30 30 31 32 34 34 30 25
2 2 2 2 2 2 1 1 0 1 1 2 3 3 4 4 4 4 4 5 5 6 6 8 9 10 11 12 13 14 14 14 14 14 13 12 12 12 11 10 10 10 11 13 16 19 21 21 21 21 21 22 22 22 22 23 23 24 23 21 21 21 22 22 22 23 24 24 23 22 22 21 21 22 23 24 25 26 27 28 30 29 25 21 18
3 3 3 2 2 2 2 2 2 2 2 3 3 3 4 5 5 6 6 6 6 7 7 7 8 8 9 10 11 12 13 13 13 13 13 12 13 13 14 14 14 15 14 15 17 19 20 21 21 20 19 18 18 18 18 20 21 23 22 21 20 20 20 20 20 21 21 20 19 19 19 18 18 19 21 22 22 23 24 26 26 23 20 18 16
4 4 4 4 3 3 4 4 4 4 4 4 5 5 5 6 6 6 7 7 8 8 8 8 8 9 9 10 10 11 11 12 12 12 12 12 12 13 13 14 15 16 16 17 19 19 20 21 20 19 19 18 17 17 17 18 19 21 21 21 21 21 21 21 21 21 20 19 19 18 17 17 17 17 19 21 22 22 22 20 19 17 16 15 17
4 5 5 5 5 5 6 6 6 6 7 6 7 6 7 7 8 8 8 9 9 10 10 10 11 11 11 11 11 11 11 11 12 12 12 12 12 12 13 13 14 15 16 17 18 19 19 20 20 20 20 20 19 19 19 19 19 20 21 21 21 21 21 21 21 21 20 20 19 18 16 15 14 14 15 17 18 18 17 16 15 14 13 14 17
6 6 7 7 7 7 7 7 7 8 8 8 8 8 7 8 8 9 9 9 10 10 11 11 12 12 13 13 13 13 13 13 12 12 12 13 13 13 13 13 13 14 15 16 16 17 17 18 18 18 19 19 19 19 20 20 19 19 20 20 20 20 19 19 19 19 19 18 17 16 15 13 11 11 12 13 14 14 14 13 13 14 14 16 19
8 8 8 8 8 9 9 9 9 9 10 10 10 10 10 9 9 10 10 10 10 11 11 12 13 13 14 14 14 14 14 14 14 14 13 14 14 14 14 14 13 14 14 15 15 15 15 15 16 16 16 16 17 17 18 18 17 17 18 18 18 17 17 16 17 17 17 16 15 13 11 11 11 11 12 13 14 14 14 14 15 16 18 20 21
8 8 8 8 9 9 9 10 10 11 11 11 11 12 12 12 13 13 13 12 11 11 11 12 13 13 14 14 15 15 15 15 15 15 15 15 15 15 15 15 15 14 14 14 14 14 14 14 14 15 15 15 15 15 16 16 16 15 16 16 16 15 15 15 14 14 13 12 11 10 10 11 11 12 13 14 15 15 15 15 16 18 19 20 20
8 9 9 9 9 9 10 10 10 11 11 12 12 13 13 14 15 16 16 16 15 13 13 12 12 13 14 15 15 15 16 17 16 16 16 16 16 17 17 16 16 15 15 14 14 14 14 13 13 14 14 15 15 15 15 15 15 14 14 14 14 14 14 14 14 13 11 10 10 11 11 12 12 12 13 14 15 16 17 18 19 20 21 21 21
9 9 9 9 9 9 10 11 11 11 12 12 13 13 14 15 16 17 17 17 17 18 18 16 14 14 15 15 15 15 16 17 17 17 17 17 17 17 17 17 17 17 16 15 14 14 14 14 14 14 14 14 15 15 15 15 14 14 14 14 14 13 12 12 13 12 11 11 13 15 16 17 17 18 18 18 19 19 20 20 19 19 19 18 18
10 11 11 11 11 10 11 12 12 12 13 13 13 14 14 15 15 16 16 16 17 19 20 20 20 20 18 15 14 14 15 16 17 17 17 17 18 19 18 18 18 18 18 17 16 16 15 15 15 15 15 15 15 15 16 16 15 15 15 15 15 14 13 13 13 13 14 15 18 19 19 20 20 21 21 21 21 20 20 19 18 17 17 17 16
11 12 12 13 14 13 13 13 13 13 13 14 14 14 14 15 15 15 16 17 18 19 19 19 20 21 18 13 10 13 16 17 18 18 16 16 18 20 20 20 20 19 19 19 19 18 17 17 17 17 17 17 17 16 16 17 17 16 16 16 15 15 14 15 16 17 18 20 21 21 21 21 21 21 21 22 22 21 20 19 19 18 18 18 17
12 12 12 12 13 13 13 14 14 14 14 14 14 15 15 15 15 15 16 17 19 19 19 18 18 19 19 17 15 17 20 21 21 22 21 18 18 19 19 20 21 20 20 20 20 20 19 19 19 19 19 19 19 19 18 18 18 18 18 17 17 16 16 17 18 19 20 21 21 21 21 22 22 22 22 22 22 21 20 19 19 19 18 19 19
13 13 12 12 12 13 13 13 14 14 14 14 15 15 16 15 14 15 16 17 19 19 19 20 20 20 21 22 21 20 20 21 23 26 26 24 22 21 19 20 22 22 22 21 20 21 21 20 20 20 20 20 20 21 21 21 21 20 20 20 20 20 20 21 21 22 23 23 23 23 23 23 22 22 22 22 21 21 22 22 22 23 23 24 25
13 14 13 13 12 13 13 14 15 15 15 15 15 15 15 14 14 14 15 16 18 18 18 20 22 21 20 21 22 21 20 20 22 25 27 27 27 25 22 23 23 22 21 21 22 22 22 22 22 23 22 22 22 22 22 23 23 23 23 23 23 23 23 23 24 24 25 26 26 26 26 26 25 25 26 25 25 26 27 28 28 29 29 30 30
14 14 14 14 14 14 14 15 16 16 16 17 17 16 15 14 14 14 14 14 15 15 16 18 21 21 19 18 19 20 20 21 22 23 25 28 29 27 26 26 25 22 20 21 22 23 23 24 25 27 26 25 24 24 24 25 25 25 25 25 25 26 25 25 26 26 26 27 28 28 28 28 28 29 29 29 29 30 31 31 31 30 30 29 29
14 14 15 15 15 15 15 16 16 17 17 17 17 17 17 16 15 14 15 14 14 14 14 16 19 20 18 16 17 20 20 21 23 25 26 27 27 26 26 28 28 26 25 25 24 23 23 24 26 29 29 27 26 25 25 26 26 27 28 27 27 27 28 27 27 28 28 28 29 29 28 27 28 30 30 30 30 30 31 31 31 31 31 31 31
15 15 15 15 16 16 16 16 16 17 17 17 16 15 16 16 15 15 15 16 16 16 16 16 19 21 20 17 18 20 21 22 24 26 26 25 25 25 27 29 30 29 28 28 27 25 23 24 26 29 30 29 27 26 26 26 27 28 29 30 30 30 30 30 30 30 30 30 31 31 30 29 28 29 29 29 29 30 30 31 31 31 31 32 32
15 15 15 16 16 16 16 16 16 17 16 16 15 14 15 16 15 15 15 16 16 17 17 17 18 21 21 19 19 20 21 23 24 26 26 26 27 29 31 32 31 30 29 29 28 26 25 26 26 28 29 29 29 28 28 28 28 28 28 29 30 31 31 31 32 32 32 32 31 32 32 31 30 30 30 30 29 29 29 30 30 30 30 30 30
15 15 15 15 15 16 16 16 16 17 17 16 16 15 15 16 15 16 17 17 17 17 17 17 18 20 21 21 21 21 21 21 22 23 25 27 28 30 31 31 31 31 30 29 29 30 29 29 29 29 29 28 28 28 29 30 31 30 29 29 30 31 31 32 33 33 33 32 32 32 32 32 31 31 31 30 30 29 29 29 29 29 28 28 28
14 14 14 14 15 16 16 16 16 17 17 16 16 15 16 17 17 17 18 18 17 17 17 18 19 19 20 22 23 22 22 22 22 24 26 27 28 29 31 32 32 32 31 31 32 33 32 32 31 30 29 29 28 28 29 31 32 31 30 29 29 30 32 33 33 33 33 32 32 32 32 32 31 31 31 30 30 29 29 29 29 29 28 27 26
14 14 15 15 16 16 16 17 17 17 17 17 16 16 17 18 17 17 17 17 16 16 17 18 19 20 22 23 24 24 24 25 25 27 28 30 31 32 33 33 33 32 32 33 34 35 34 33 33 32 32 32 31 32 32 33 33 33 32 32 31 32 32 33 34 34 33 33 33 32 32 32 32 31 30 30 29 28 28 28 28 27 27 26 26
15 15 15 16 16 17 17 17 16 16 16 16 16 16 17 17 16 17 18 17 16 16 17 19 21 23 23 24 24 24 25 27 27 27 29 31 33 33 34 34 34 33 33 33 34 35 36 36 35 34 34 34 34 35 35 35 35 35 35 34 33 33 33 33 33 32 32 33 32 32 31 31 31 30 29 29 29 28 27 26 26 25 25 25 25
15 16 16 16 16 16 16 16 16 16 16 17 16 15 16 17 17 18 19 19 18 18 19 22 23 24 25 25 25 25 27 28 28 29 29 30 30 32 34 36 36 35 34 33 33 34 36 37 36 34 33 32 33 34 34 34 34 33 33 33 32 32 32 31 31 30 30 30 30 30 29 29 28 28 27 27 28 27 26 24 23 22 23 23 23
16 16 16 16 16 15 15 15 15 15 17 17 17 17 18 19 20 20 20 20 20 20 21 22 23 24 25 25 25 25 27 28 29 30 30 30 31 32 34 36 36 36 34 32 30 30 31 31 31 30 29 29 29 30 29 29 29 29 30 31 30 29 28 28 28 28 27 27 27 27 27 27 26 26 25 25 25 25 25 23 21 20 21 21 22
Wind_Direction
226 226 225 225 221 218 219 216 212 214 216 220 224 224 225 228 230 231 232 233 235 236 239 241 242 240 239 244 249 250 250 250 254 256 255 257 259 260 262 266 267 268 271 274 275 276 276 277 278 277 278 280 280 280 280 282 283 284 286 288 291 294 296 301 302 300 296 296 296 294 291 292 293 293 294 299 309 311 312 321 329 333 331 325 330
221 224 226 225 224 222 223 222 218 216 217 221 226 229 231 233 236 237 238 240 241 241 243 245 247 247 245 246 249 253 256 255 255 257 258 257 259 260 261 265 268 268 269 272 274 275 276 277 279 281 282 282 281 281 281 282 283 284 286 288 291 294 297 302 301 299 299 298 296 294 294 296 297 298 302 308 311 310 310 316 321 324 324 320 321
211 217 222 221 220 223 227 230 226 219 218 220 224 228 232 234 237 240 241 243 245 246 247 247 249 252 252 252 253 256 259 259 258 260 261 259 259 260 261 263 266 267 267 267 267 268 270 273 276 279 279 278 277 278 280 282 282 283 284 286 287 289 294 299 300 302 306 305 300 299 301 303 300 300 304 305 303 302 303 308 315 317 313 309 310
214 210 217 220 216 217 222 226 228 225 220 221 226 228 229 232 235 239 241 243 245 247 250 250 250 252 254 254 255 257 259 260 261 262 263 263 262 261 262 264 266 267 267 268 268 269 270 271 274 276 276 275 275 274 275 276 278 277 277 278 281 284 289 293 296 300 305 305 301 302 304 304 300 298 297 296 296 296 294 296 303 306 304 302 303
226 213 219 225 225 226 225 220 219 220 219 218 225 229 229 232 235 235 239 243 245 245 248 250 251 252 254 255 256 256 257 259 262 262 263 266 266 264 265 267 267 268 270 272 272 272 272 272 272 273 273 274 273 272 272 272 271 273 274 276 278 281 284 286 289 293 296 297 297 298 298 297 294 293 293 294 293 292 294 295 296 296 300 304 303
238 234 234 233 233 237 241 234 223 221 224 221 221 223 222 224 233 238 238 238 241 244 247 250 251 251 253 254 255 255 255 257 260 262 263 264 266 266 267 268 269 270 272 275 276 276 275 273 272 272 274 274 274 273 274 273 272 274 277 280 280 280 281 284 287 290 291 293 294 294 294 293 292 291 292 294 293 293 295 297 297 296 297 302 302
238 240 242 241 239 238 245 253 248 243 246 242 238 235 226 216 217 231 240 240 238 240 246 250 251 252 254 254 255 256 256 256 256 259 261 260 262 265 267 269 271 273 274 275 277 277 277 277 276 275 275 275 274 271 270 272 274 276 277 279 280 280 282 285 286 287 288 292 295 294 292 291 290 291 292 294 295 295 295 297 299 295 293 299 304
239 237 238 242 244 241 243 251 252 252 254 253 253 253 248 234 219 218 227 236 237 236 239 245 250 253 255 257 258 257 256 258 258 257 257 258 259 261 263 268 271 275 276 275 274 274 276 277 276 275 276 276 275 276 277 278 280 281 282 283 282 282 283 285 284 282 283 288 291 291 290 290 290 289 289 292 295 296 297 302 304 296 294 305 307
241 240 240 242 245 246 248 247 246 250 254 253 254 255 257 256 245 231 221 222 233 239 240 243 250 257 260 263 266 261 254 254 255 254 253 254 256 256 258 262 265 268 271 271 272 275 277 276 274 276 280 279 278 281 285 284 281 280 281 282 282 283 284 286 286 284 284 285 285 285 286 290 292 290 290 292 293 295 299 304 306 300 295 296 294
239 241 241 243 246 248 251 251 249 252 255 257 259 258 257 258 260 256 241 227 231 241 247 249 251 258 262 264 267 265 260 261 260 257 255 255 256 257 258 257 258 262 264 265 267 269 272 273 274 276 277 277 277 280 282 282 279 278 278 277 277 280 282 283 285 287 287 285 284 285 286 288 291 293 292 292 291 292 294 297 300 297 288 280 283
241 241 241 242 245 247 249 251 253 256 259 262 265 264 264 263 266 270 267 253 243 240 245 251 252 254 258 260 260 261 264 270 270 265 262 260 259 259 258 258 260 263 266 269 271 272 273 273 273 273 274 276 278 279 278 278 277 278 280 281 281 283 283 283 284 285 285 285 286 287 287 287 288 290 290 290 289 289 290 292 293 289 283 281 284
244 242 241 241 242 245 248 250 253 258 261 265 267 267 267 267 268 271 272 266 259 249 245 250 253 253 255 258 261 264 263 262 263 263 264 265 266 263 260 260 262 264 266 270 274 276 278 277 276 275 275 276 277 276 276 276 276 277 280 283 285 287 288 289 288 286 285 285 285 286 288 289 288 288 287 286 285 285 286 287 287 285 284 284 283
249 245 243 243 242 241 244 247 251 258 262 264 267 268 267 267 268 270 269 267 265 260 253 250 251 251 254 258 262 266 265 260 258 259 259 263 268 267 264 263 263 262 263 266 268 271 275 278 280 278 275 274 273 273 273 275 276 277 279 280 282 284 288 293 295 291 286 285 285 285 286 286 286 284 282 283 284 284 283 284 285 285 286 285 282
242 236 238 242 240 236 238 242 247 256 264 266 267 268 267 265 265 266 266 264 264 261 256 253 251 251 254 257 259 262 264 262 259 257 256 258 260 263 265 266 266 265 264 265 268 270 271 273 275 274 274 275 275 274 274 278 282 283 283 282 281 283 287 292 294 291 286 284 286 286 285 285 285 284 283 284 285 284 283 285 286 285 284 282 280
219 207 202 213 219 222 232 242 252 266 276 278 276 273 270 268 266 265 262 261 262 262 260 258 255 253 253 254 255 257 259 260 258 256 256 258 258 258 260 263 267 269 269 268 269 270 271 271 271 270 269 270 272 275 278 282 285 287 287 284 283 286 289 290 291 291 289 288 289 289 288 286 286 287 286 285 285 283 283 285 285 283 280 278 278
147 176 189 188 191 208 230 261 281 288 290 288 286 281 274 270 270 266 260 258 259 261 263 262 258 254 253 252 251 253 255 257 257 256 256 257 257 257 258 259 263 267 270 270 270 270 271 270 269 269 268 267 268 272 277 281 284 287 288 287 287 289 291 291 290 290 291 293 293 293 290 286 286 286 284 281 279 277 276 277 280 280 278 277 278
146 143 143 149 159 188 238 267 282 286 285 286 291 291 285 283 283 277 266 259 257 259 263 263 259 255 252 250 249 251 253 254 255 255 256 258 258 258 258 258 260 264 268 271 272 274 275 274 273 275 275 274 274 273 275 279 283 286 290 291 291 290 290 289 286 284 288 292 295 295 292 288 286 284 282 281 279 277 277 277 277 276 275 275 276
200 186 189 201 212 228 245 258 270 276 277 278 281 286 294 297 299 296 281 265 259 258 259 262 262 259 256 253 252 252 254 254 255 255 255 256 257 258 257 257 259 263 267 271 274 275 277 278 280 281 280 279 281 279 276 277 281 285 288 291 291 289 287 285 282 279 283 288 292 295 293 290 288 285 284 285 282 279 280 278 272 273 277 278 275
214 183 201 217 226 232 240 246 252 258 261 264 268 273 279 280 286 289 280 267 261 258 261 267 267 261 257 256 255 254 254 255 256 255 255 256 257 257 256 256 258 261 265 270 274 276 277 278 279 280 280 282 285 284 280 280 281 283 284 286 286 286 284 284 283 281 281 285 291 294 293 292 290 286 284 283 280 280 283 282 277 278 280 278 275
49 120 156 173 187 204 220 228 235 247 257 268 280 288 288 278 274 277 278 276 269 261 264 276 276 267 261 259 260 260 257 255 255 254 254 254 256 256 255 255 258 260 263 266 271 275 276 277 279 280 282 285 287 286 283 283 283 282 282 281 282 282 281 283 286 286 285 287 291 294 295 293 291 287 285 282 278 279 283 284 281 279 278 277 276
124 141 134 134 161 186 190 190 203 233 257 281 302 324 334 318 297 287 287 290 286 275 266 267 272 270 261 256 261 265 260 254 255 257 257 257 257 257 257 259 260 262 264 265 267 271 272 273 276 281 284 286 287 285 283 283 284 284 283 281 280 280 281 282 285 287 288 289 291 293 293 292 290 289 288 285 280 279 281 282 279 275 273 273 273
167 180 169 154 159 170 180 188 204 221 229 252 277 305 333 340 335 319 314 322 327 323 309 282 262 258 256 257 274 288 280 262 252 251 254 257 257 256 259 262 261 260 260 260 261 266 270 271 273 278 282 284 284 285 285 285 286 286 285 284 282 281 282 282 283 285 287 289 289 289 289 288 288 287 286 285 284 283 282 279 278 277 275 274 273
187 189 185 180 176 183 198 216 231 236 241 254 265 276 287 296 298 298 301 312 326 342 347 336 304 281 278 285 296 299 296 292 273 246 245 252 256 258 261 264 264 262 260 258 258 262 268 272 272 274 279 283 284 285 286 287 288 288 286 285 284 283 283 282 283 284 285 287 289 289 287 286 286 285 284 283 283 284 280 275 277 279 276 275 274
173 184 187 194 203 211 221 235 243 246 250 255 261 268 275 282 289 292 294 298 303 311 324 333 334 329 324 326 332 328 319 320 319 294 271 266 264 264 263 262 266 272 272 268 265 265 269 273 275 277 281 285 285 285 285 286 288 287 285 283 282 282 283 283 283 283 284 286 288 287 286 284 284 285 286 283 283 283 278 275 278 277 271 270 270
122 169 192 208 226 236 242 246 246 249 253 255 259 266 271 277 282 286 288 291 293 293 293 297 306 316 324 334 345 356 360 352 345 333 311 289 275 271 268 265 265 269 270 271 271 272 273 273 274 277 281 282 282 281 281 283 286 287 284 282 281 282 283 284 285 285 285 286 286 285 283 283 284 285 286 285 284 283 279 278 279 276 274 278 273
75 96 135 159 188 218 241 251 252 254 258 261 265 270 273 277 280 281 283 286 285 286 287 286 289 296 304 311 317 320 324 332 339 342 336 322 305 295 294 289 281 275 272 270 271 274 275 274 274 276 280 282 282 280 279 280 283 285 284 283 283 284 285 286 287 287 286 284 283 282 281 282 283 284 284 282 282 282 281 282 280 276 278 280 265
82 83 88 100 112 118 137 214 262 274 279 286 292 296 299 301 300 296 295 292 287 285 287 288 290 292 296 300 302 303 302 302 304 306 307 307 306 308 313 319 316 304 289 277 272 274 277 279 279 279 281 283 285 285 284 284 283 284 285 286 287 288 290 291 291 290 287 285 283 282 282 282 284 285 284 281 279 278 277 280 283 283 282 275 252
77 72 69 70 67 68 74 76 55 315 308 309 310 314 317 319 320 318 314 310 305 301 296 295 298 300 302 302 303 303 305 305 305 305 302 293 290 291 291 292 295 296 291 286 284 283 283 284 283 282 285 287 289 291 294 293 290 288 289 290 292 293 295 297 297 295 291 288 286 285 285 285 284 282 281 280 280 279 278 280 283 280 269 252 238
20 23 30 27 22 15 10 5 358 341 335 328 322 321 320 318 320 322 324 324 322 319 318 315 313 312 314 315 315 316 316 316 314 313 308 301 294 291 288 284 282 279 278 279 280 281 282 283 285 287 290 291 291 291 291 290 290 290 291 293 295 297 298 300 301 299 296 292 289 287 287 287 285 282 281 281 281 281 281 278 270 256 236 225 233
358 2 3 358 354 350 344 340 335 332 333 333 330 327 324 322 320 319 320 323 323 323 323 324 323 323 321 320 320 320 321 321 321 321 319 313 307 302 298 294 289 285 283 281 279 279 281 283 285 287 288 288 288 286 283 282 283 285 288 291 293 295 296 297 299 299 298 295 293 291 289 287 286 285 285 283 278 272 265 255 242 231 228 236 249
330 333 332 330 329 328 327 327 330 330 331 334 334 332 328 326 324 322 321 322 323 323 323 322 322 323 322 321 320 319 318 319 319 320 318 316 312 309 305 301 298 294 291 289 287 287 288 287 288 289 290 290 289 286 284 283 282 284 287 289 289 290 292 293 294 296 296 295 294 294 292 291 289 286 283 276 266 253 239 230 229 237 246 254 263
309 311 314 315 317 319 321 322 325 328 329 329 328 327 326 325 322 319 320 322 321 318 316 316 316 316 316 316 317 316 316 316 316 315 314 313 312 310 308 307 305 302 300 299 298 296 294 293 293 293 292 291 289 287 286 286 286 287 288 288 289 290 292 292 293 294 295 295 295 296 296 294 285 272 264 256 247 240 240 245 254 260 264 266 271
300 303 306 308 312 316 320 322 324 325 327 327 326 326 326 324 320 318 319 321 319 313 309 309 308 308 308 309 309 309 311 311 310 309 308 307 306 306 306 306 307 306 305 305 304 303 302 300 299 298 296 293 292 291 291 290 291 291 291 292 295 297 297 296 296 298 300 300 300 297 291 280 267 255 247 243 245 250 260 269 274 275 273 272 272
293 297 300 303 307 311 314 316 319 320 321 322 322 322 324 323 320 319 320 321 315 308 305 306 303 301 301 301 301 302 302 300 300 302 302 302 302 302 301 302 304 304 304 305 306 306 305 305 304 303 299 296 293 292 292 292 294 295 296 298 301 302 302 301 300 301 303 302 296 285 272 261 254 251 247 248 253 259 266 275 282 285 284 283 284
290 292 295 298 302 306 307 309 312 313 314 317 316 316 318 318 316 315 316 317 314 309 306 305 302 299 300 300 300 299 297 296 295 294 295 297 299 299 299 300 300 299 299 301 303 304 305 305 305 304 301 297 294 292 291 293 294 295 296 297 299 299 301 302 302 300 296 288 281 274 268 264 264 265 266 269 273 276 280 285 290 293 294 296 298
289 290 291 291 293 296 298 300 302 303 304 306 307 307 309 309 310 313 316 316 314 310 310 311 310 304 302 303 302 298 294 292 292 292 293 295 296 295 297 299 299 297 297 296 296 297 300 302 302 300 299 298 296 294 293 294 294 293 291 292 291 289 289 292 293 290 282 277 275 274 272 273 276 279 282 286 289 292 294 297 299 301 303 305 309
283 286 287 285 284 284 286 287 288 290 293 294 295 297 299 301 304 308 309 308 305 304 308 311 310 305 304 306 303 298 294 292 290 291 294 295 295 296 298 299 298 297 297 297 295 295 296 297 297 297 298 297 296 295 294 293 293 292 290 288 286 282 277 272 269 267 269 275 279 280 279 278 280 283 286 289 292 294 296 297 299 301 302 302 303
276 277 278 279 281 282 281 280 280 281 284 286 288 290 292 294 296 297 296 295 295 298 302 305 305 305 307 307 299 296 299 299 296 294 294 294 295 297 297 298 299 300 300 299 298 297 297 296 295 294 294 294 293 292 291 290 290 290 290 289 288 286 282 277 273 274 278 282 284 286 286 284 284 285 287 289 290 290 289 289 290 291 291 290 291
279 278 277 278 281 282 281 281 282 282 282 284 286 288 289 289 288 286 285 285 286 289 292 293 291 292 295 296 296 297 301 303 302 298 296 295 296 296 296 297 297 297 297 298 301 301 301 299 296 295 295 295 293 292 290 289 288 288 287 287 286 284 282 279 277 277 277 279 280 282 284 285 286 286 287 287 287 286 285 285 285 284 282 282 283
290 289 287 286 285 284 283 282 284 286 287 287 287 288 290 290 287 283 281 280 280 282 284 284 281 280 283 288 293 296 298 301 300 298 297 298 297 296 297 296 292 291 292 296 298 299 298 298 298 297 295 293 292 291 290 289 288 286 284 283 281 280 279 278 277 276 276 277 278 280 282 284 285 286 286 285 285 284 284 284 284 284 283 283 283
293 293 294 294 293 292 292 292 292 293 293 291 291 291 292 291 287 283 279 277 278 279 278 278 279 280 280 284 287 289 291 294 295 296 298 299 297 297 298 294 289 289 292 292 291 292 294 296 297 294 291 289 289 289 289 289 287 286 284 283 281 281 280 279 280 280 280 280 280 280 281 282 282 282 281 281 281 282 282 283 284 284 284 285 285
297 296 296 298 298 297 298 298 298 298 298 298 299 299 297 295 291 288 283 279 277 276 273 273 277 281 282 282 282 283 285 289 291 293 295 296 297 300 301 294 290 291 294 293 291 293 294 295 294 290 288 288 290 290 290 289 288 286 285 284 284 283 284 283 283 283 283 282 281 280 281 282 282 281 281 280 281 282 282 283 284 284 285 285 285
297 296 296 297 296 297 298 297 296 297 298 299 301 301 300 300 298 295 291 287 283 279 274 272 275 279 282 281 280 280 283 286 286 287 290 292 294 296 295 293 294 300 302 301 300 300 298 295 292 289 286 286 288 289 290 291 291 289 287 286 285 285 286 286 286 285 284 284 284 283 282 282 281 281 282 282 282 283 283 283 284 284 285 285 284
294 294 295 295 294 294 295 294 294 294 294 295 294 292 290 290 290 287 285 284 281 278 275 273 276 282 286 285 281 281 282 282 283 284 286 288 288 288 289 292 296 300 303 305 307 308 303 296 293 292 291 290 289 287 286 286 287 288 289 289 288 287 286 286 286 285 285 285 286 285 285 284 283 282 282 282 282 282 283 283 284 284 285 285 286
291 291 291 290 290 291 292 292 294 295 295 295 292 288 284 283 282 280 278 277 277 277 278 278 281 286 289 288 284 282 280 278 278 279 280 281 283 286 289 292 294 295 299 303 306 306 304 301 299 298 297 295 294 293 290 287 285 285 287 288 288 288 288 287 286 286 285 286 286 286 285 285 284 284 284 283 283 284 284 284 283 283 283 284 285
286 287 287 287 288 290 291 291 292 293 295 295 295 293 290 286 281 277 277 278 279 282 285 287 287 288 289 288 286 284 281 276 274 275 277 281 284 286 287 289 291 294 298 300 300 299 300 302 302 301 298 297 298 297 295 291 288 286 286 287 288 287 287 287 286 286 286 287 287 287 286 285 285 284 284 284 285 286 286 285 284 284 284 284 284
285 286 286 285 286 288 289 289 290 291 291 291 288 286 285 284 283 280 279 280 279 279 282 284 284 284 283 282 282 282 280 277 277 279 281 281 281 281 282 286 291 294 296 297 297 297 298 298 298 297 296 296 296 295 293 291 290 289 290 291 290 288 286 285 284 284 285 285 286 285 285 285 284 283 283 283 284 284 284 284 284 284 285 284 283
285 284 284 285 287 289 290 292 294 296 297 297 295 291 290 291 290 286 283 281 280 277 275 275 275 275 276 277 279 280 279 278 278 279 280 279 279 280 283 286 289 291 294 295 296 296 297 297 296 295 295 295 294 293 291 289 289 289 290 291 290 289 287 286 285 284 283 283 283 283 283 282 282 282 282 282 281 280 280 281 282 283 283 283 282
284 286 288 291 292 293 294 296 297 297 297 298 299 297 296 294 289 282 277 275 273 272 272 273 274 275 277 278 278 279 279 280 281 282 281 281 282 283 285 287 288 291 294 297 299 300 300 298 297 298 298 298 296 294 292 291 290 291 290 290 288 287 287 287 287 286 284 283 283 282 281 280 280 280 280 280 279 279 278 279 281 281 281 281 281
288 292 295 294 293 293 295 297 299 299 299 301 302 299 293 288 284 280 277 274 271 270 272 275 278 278 278 278 277 277 277 279 282 284 283 282 283 286 289 291 292 293 296 299 302 302 301 300 300 301 301 300 298 296 295 295 295 295 294 292 290 287 286 286 286 286 285 284 283 282 280 279 279 279 280 280 280 279 279 279 279 279 279 279 280
289 291 291 290 291 293 295 297 298 299 299 301 302 298 292 287 285 284 282 279 276 274 273 275 277 277 278 278 278 278 277 277 278 279 279 281 283 286 289 292 293 295 297 301 302 300 298 298 300 301 300 298 297 297 298 300 300 299 297 294 292 290 288 287 286 285 284 282 281 280 280 279 279 279 279 279 279 279 279 280 279 278 277 278 279
Height
3191 3192 3194 3194 3195 3196 3196 3197 3198 3199 3200 3201 3202 3203 3204 3205 3206 3207 3208 3209 3210 3211 3211 3212 3213 3214 3214 3215 3215 3216 3217 3218 3218 3219 3220 3221 3221 3222 3222 3222 3223 3224 3225 3225 3226 3226 3226 3227 3227 3228 3228 3228 3229 3229 3229 3229 3229 3229 3229 3229 3228 3227 3227 3227 3227 3227 3227 3226 3225 3225 3224 3223 3223 3222 3221 3221 3220 3219 3219 3218 3217 3216 3215 3213 3213
3190 3192 3193 3194 3195 3195 3196 3197 3197 3198 3199 3200 3201 3202 3203 3204 3205 3206 3207 3208 3209 3210 3211 3211 3212 3212 3213 3214 3214 3215 3215 3216 3217 3217 3218 3219 3220 3220 3221 3221 3222 3223 3223 3224 3224 3224 3225 3225 3226 3226 3226 3227 3227 3227 3227 3227 3227 3227 3227 3227 3227 3226 3225 3225 3225 3225 3225 3225 3224 3223 3223 3222 3222 3221 3221 3220 3220 3219 3219 3218 3217 3216 3215 3213 3212
3186 3189 3191 3193 3193 3194 3195 3196 3197 3197 3198 3199 3199 3201 3202 3203 3204 3205 3206 3207 3208 3209 3210 3210 3211 3212 3212 3213 3213 3214 3214 3215 3215 3216 3217 3217 3218 3219 3219 3219 3220 3221 3221 3222 3222 3223 3223 3223 3224 3224 3224 3225 3225 3225 3226 3226 3226 3226 3226 3225 3225 3224 3224 3224 3224 3224 3224 3224 3223 3222 3222 3221 3221 3220 3219 3219 3218 3218 3218 3217 3217 3216 3215 3213 3211
3186 3187 3190 3191 3191 3191 3192 3194 3195 3196 3196 3197 3199 3200 3200 3201 3202 3203 3204 3205 3206 3207 3208 3209 3209 3210 3211 3211 3212 3213 3213 3213 3214 3215 3215 3216 3217 3217 3218 3218 3218 3219 3220 3220 3221 3221 3221 3221 3222 3222 3222 3222 3223 3223 3224 3224 3224 3224 3224 3223 3223 3223 3223 3222 3222 3222 3222 3222 3222 3221 3220 3220 3219 3218 3218 3217 3217 3216 3216 3216 3215 3215 3214 3213 3211
3186 3186 3189 3191 3191 3190 3190 3190 3190 3191 3192 3194 3196 3198 3199 3200 3201 3202 3203 3204 3205 3205 3206 3207 3208 3208 3209 3210 3211 3211 3212 3212 3213 3213 3214 3215 3215 3216 3216 3217 3217 3218 3218 3219 3219 3219 3219 3219 3220 3220 3220 3220 3221 3221 3221 3221 3221 3221 3221 3221 3221 3221 3221 3220 3220 3220 3220 3220 3220 3219 3218 3217 3217 3217 3216 3216 3216 3215 3214 3214 3214 3214 3213 3212 3211
3186 3186 3188 3190 3190 3191 3192 3192 3190 3189 3190 3191 3192 3193 3195 3197 3200 3201 3202 3202 3203 3204 3204 3205 3206 3206 3207 3208 3209 3209 3210 3210 3211 3212 3212 3213 3214 3214 3215 3215 3216 3216 3217 3217 3217 3217 3218 3218 3218 3218 3218 3218 3219 3219 3219 3219 3219 3220 3220 3219 3219 3219 3219 3218 3219 3218 3218 3218 3218 3218 3217 3216 3216 3215 3215 3215 3214 3213 3213 3213 3213 3212 3212 3211 3210
3184 3185 3186 3186 3187 3189 3191 3192 3191 3191 3192 3193 3192 3194 3195 3194 3194 3198 3201 3201 3202 3202 3203 3204 3204 3204 3205 3206 3207 3207 3208 3208 3209 3210 3210 3211 3212 3213 3213 3214 3214 3214 3215 3215 3215 3216 3216 3216 3216 3216 3216 3217 3217 3216 3216 3217 3217 3218 3218 3217 3217 3217 3217 3217 3217 3216 3216 3216 3216 3216 3215 3215 3214 3214 3213 3213 3212 3212 3212 3212 3211 3210 3210 3209 3208
3181 3183 3184 3184 3185 3187 3188 3190 3190 3190 3192 3192 3193 3195 3195 3193 3192 3193 3196 3198 3200 3200 3201 3202 3202 3202 3204 3205 3205 3206 3206 3206 3207 3207 3208 3209 3210 3210 3211 3212 3212 3212 3212 3213 3213 3213 3213 3214 3213 3214 3215 3215 3215 3215 3215 3216 3216 3216 3216 3216 3215 3215 3215 3214 3214 3214 3213 3213 3213 3213 3213 3212 3212 3212 3212 3211 3211 3210 3210 3210 3209 3208 3208 3208 3207
3178 3179 3181 3181 3182 3184 3186 3188 3189 3189 3190 3190 3192 3193 3194 3194 3194 3193 3193 3194 3196 3198 3199 3201 3201 3201 3202 3203 3204 3204 3203 3203 3204 3205 3206 3206 3207 3208 3208 3208 3209 3210 3209 3210 3210 3210 3210 3210 3211 3212 3213 3213 3213 3213 3214 3214 3214 3214 3214 3214 3213 3213 3212 3212 3212 3212 3211 3211 3211 3211 3210 3210 3210 3210 3210 3209 3209 3208 3207 3207 3206 3206 3205 3206 3206
3174 3176 3177 3178 3179 3181 3183 3185 3187 3188 3188 3189 3190 3191 3191 3192 3194 3195 3194 3192 3193 3195 3198 3199 3200 3200 3200 3201 3201 3201 3201 3202 3203 3203 3204 3204 3204 3206 3206 3205 3206 3207 3207 3206 3206 3208 3208 3207 3208 3210 3210 3211 3211 3211 3212 3212 3211 3212 3211 3211 3210 3210 3210 3210 3210 3209 3209 3209 3209 3209 3208 3207 3207 3207 3207 3207 3206 3205 3205 3204 3204 3203 3203 3203 3203
3170 3172 3174 3175 3177 3178 3180 3182 3184 3186 3186 3187 3187 3188 3189 3189 3190 3192 3194 3193 3192 3193 3194 3196 3198 3198 3198 3198 3197 3198 3200 3201 3202 3202 3202 3202 3202 3203 3203 3203 3203 3203 3204 3204 3204 3206 3206 3206 3207 3208 3208 3208 3208 3208 3208 3208 3209 3209 3208 3208 3207 3207 3206 3207 3207 3207 3206 3206 3207 3206 3205 3205 3204 3204 3204 3204 3204 3203 3202 3202 3202 3201 3201 3200 3200
3166 3167 3169 3172 3174 3175 3177 3180 3181 3183 3183 3184 3185 3186 3187 3187 3187 3188 3190 3191 3191 3191 3191 3193 3195 3196 3196 3196 3194 3195 3198 3199 3199 3200 3200 3200 3200 3200 3200 3200 3199 3200 3202 3203 3203 3204 3204 3204 3205 3205 3205 3205 3205 3205 3205 3205 3205 3206 3205 3205 3204 3204 3203 3204 3204 3204 3203 3203 3204 3204 3203 3203 3203 3202 3201 3201 3200 3200 3199 3199 3199 3198 3198 3198 3197
3162 3163 3166 3168 3170 3172 3174 3176 3178 3179 3180 3181 3182 3183 3184 3184 3184 3185 3186 3187 3188 3189 3190 3190 3191 3192 3193 3193 3192 3192 3193 3195 3196 3196 3197 3197 3198 3198 3198 3197 3197 3198 3200 3200 3200 3201 3201 3202 3202 3202 3202 3202 3202 3202 3202 3202 3202 3203 3203 3202 3202 3202 3202 3202 3202 3201 3200 3200 3200 3201 3201 3200 3199 3199 3199 3198 3198 3197 3197 3196 3196 3195 3195 3194 3194
3160 3161 3163 3165 3166 3169 3171 3173 3175 3176 3177 3177 3177 3178 3179 3180 3180 3181 3183 3184 3184 3185 3186 3187 3188 3188 3189 3190 3189 3188 3189 3190 3191 3192 3193 3194 3194 3195 3196 3195 3195 3196 3197 3197 3197 3198 3198 3198 3199 3199 3199 3199 3199 3199 3200 3200 3200 3200 3200 3200 3200 3200 3200 3200 3200 3198 3197 3196 3196 3197 3197 3197 3196 3196 3196 3195 3195 3194 3194 3193 3193 3192 3191 3191 3191
3160 3160 3162 3163 3165 3167 3169 3171 3173 3173 3174 3174 3174 3174 3175 3175 3175 3177 3178 3179 3181 3182 3183 3184 3185 3185 3185 3186 3186 3184 3185 3187 3188 3189 3190 3191 3191 3192 3192 3192 3192 3193 3194 3194 3195 3195 3194 3194 3195 3196 3196 3195 3195 3196 3196 3197 3197 3197 3197 3197 3196 3196 3196 3196 3196 3195 3194 3193 3192 3192 3193 3194 3193 3193 3192 3191 3191 3191 3190 3189 3189 3189 3188 3187 3188
3159 3160 3161 3162 3163 3165 3167 3169 3170 3171 3171 3171 3171 3171 3171 3171 3171 3172 3173 3174 3176 3178 3178 3179 3180 3181 3181 3181 3179 3179 3181 3183 3185 3185 3186 3187 3188 3188 3188 3189 3189 3190 3191 3191 3191 3191 3191 3190 3190 3191 3192 3192 3192 3192 3192 3193 3193 3193 3193 3193 3193 3192 3192 3192 3191 3191 3190 3190 3189 3189 3190 3191 3191 3190 3189 3188 3188 3187 3186 3185 3185 3185 3184 3184 3184
3159 3159 3160 3161 3163 3165 3167 3168 3168 3169 3169 3169 3168 3168 3168 3168 3168 3168 3169 3170 3171 3172 3173 3174 3174 3176 3176 3175 3173 3175 3178 3179 3180 3181 3183 3183 3184 3184 3184 3184 3185 3186 3187 3187 3188 3188 3188 3187 3187 3188 3189 3189 3190 3190 3189 3188 3188 3188 3189 3189 3188 3188 3188 3188 3187 3187 3186 3186 3186 3186 3187 3187 3187 3187 3186 3185 3184 3182 3181 3182 3183 3182 3181 3180 3181
3157 3157 3159 3161 3162 3164 3165 3166 3167 3167 3167 3167 3167 3166 3166 3166 3166 3166 3166 3166 3167 3168 3168 3169 3170 3170 3170 3170 3171 3173 3174 3174 3176 3177 3178 3179 3180 3180 3180 3180 3181 3182 3183 3183 3184 3184 3184 3184 3184 3185 3185 3185 3186 3187 3186 3185 3185 3184 3184 3184 3184 3184 3184 3183 3183 3183 3182 3182 3182 3182 3183 3183 3183 3183 3183 3183 3181 3177 3177 3179 3179 3177 3176 3177 3177
3155 3156 3158 3159 3161 3162 3163 3164 3165 3165 3166 3166 3166 3165 3165 3165 3165 3165 3164 3164 3165 3165 3165 3166 3166 3165 3165 3166 3168 3169 3170 3170 3171 3172 3174 3175 3176 3176 3176 3176 3178 3179 3179 3180 3180 3180 3180 3180 3180 3180 3181 3181 3182 3182 3182 3181 3181 3180 3180 3180 3179 3179 3179 3179 3179 3179 3178 3178 3178 3178 3178 3179 3179 3179 3178 3179 3177 3174 3173 3175 3175 3172 3172 3173 3173
3155 3156 3157 3158 3159 3160 3161 3162 3163 3163 3164 3164 3164 3164 3164 3163 3163 3163 3163 3163 3163 3162 3162 3162 3161 3159 3160 3162 3163 3164 3165 3165 3165 3166 3168 3170 3171 3171 3172 3173 3174 3174 3175 3175 3175 3175 3175 3175 3175 3176 3176 3177 3177 3177 3177 3177 3177 3176 3176 3176 3175 3175 3175 3175 3175 3174 3174 3174 3174 3173 3173 3173 3173 3172 3172 3172 3172 3170 3169 3170 3169 3168 3168 3168 3168
3156 3156 3157 3158 3158 3159 3159 3160 3161 3162 3162 3162 3162 3162 3162 3162 3162 3162 3162 3162 3161 3160 3160 3159 3159 3158 3159 3159 3159 3159 3159 3160 3160 3162 3163 3165 3165 3166 3167 3169 3169 3170 3170 3171 3171 3170 3170 3171 3172 3172 3173 3173 3172 3172 3172 3172 3172 3172 3172 3172 3171 3171 3170 3170 3171 3170 3169 3169 3169 3168 3168 3167 3167 3166 3165 3166 3166 3165 3165 3164 3163 3163 3163 3163 3163
3156 3157 3157 3157 3157 3158 3159 3159 3160 3160 3160 3161 3161 3161 3161 3161 3161 3161 3160 3160 3160 3159 3158 3157 3158 3158 3157 3156 3156 3156 3157 3156 3156 3157 3159 3160 3161 3161 3163 3164 3164 3164 3165 3166 3166 3166 3166 3167 3168 3168 3169 3169 3168 3168 3168 3168 3168 3168 3168 3167 3167 3167 3166 3166 3166 3165 3165 3165 3164 3164 3163 3162 3162 3162 3161 3160 3160 3160 3159 3159 3158 3158 3158 3158 3158
3156 3156 3156 3156 3157 3157 3158 3158 3159 3159 3159 3159 3159 3159 3160 3160 3160 3159 3159 3159 3158 3158 3157 3156 3157 3157 3156 3155 3155 3155 3156 3155 3153 3153 3155 3157 3157 3158 3159 3160 3160 3160 3160 3161 3162 3162 3162 3163 3163 3164 3164 3164 3164 3164 3164 3164 3164 3164 3163 3163 3163 3162 3162 3162 3161 3160 3160 3160 3159 3159 3158 3157 3157 3156 3156 3156 3156 3155 3154 3154 3154 3154 3153 3153 3153
3154 3155 3155 3155 3156 3156 3157 3157 3157 3157 3158 3158 3158 3158 3158 3158 3158 3158 3158 3157 3157 3157 3156 3156 3156 3156 3156 3155 3154 3154 3154 3153 3151 3152 3153 3154 3155 3156 3157 3158 3158 3157 3157 3157 3158 3159 3159 3159 3159 3159 3159 3160 3160 3160 3159 3159 3159 3159 3159 3159 3158 3158 3158 3157 3156 3156 3155 3155 3154 3154 3153 3152 3151 3151 3151 3151 3151 3150 3150 3150 3149 3148 3147 3148 3149
3153 3154 3154 3154 3155 3155 3155 3156 3156 3156 3156 3157 3157 3157 3157 3157 3157 3157 3156 3156 3156 3155 3155 3155 3155 3155 3154 3154 3154 3153 3153 3152 3152 3152 3152 3152 3153 3153 3154 3154 3154 3154 3154 3154 3155 3155 3155 3156 3156 3156 3155 3155 3155 3155 3155 3155 3155 3155 3154 3154 3153 3153 3153 3152 3151 3150 3150 3149 3149 3148 3148 3147 3147 3147 3147 3146 3146 3146 3145 3145 3145 3144 3144 3144 3144
3153 3153 3154 3154 3154 3154 3154 3155 3155 3155 3155 3155 3156 3156 3156 3156 3156 3155 3155 3155 3154 3154 3154 3154 3153 3153 3153 3152 3152 3152 3152 3152 3152 3151 3151 3151 3151 3151 3151 3151 3150 3150 3150 3151 3152 3152 3152 3152 3152 3152 3151 3151 3150 3151 3151 3151 3152 3151 3150 3150 3149 3149 3148 3148 3147 3145 3144 3144 3144 3144 3143 3143 3143 3142 3142 3142 3142 3142 3142 3141 3141 3141 3141 3140 3139
3153 3153 3153 3153 3153 3154 3154 3154 3154 3154 3154 3154 3154 3154 3154 3154 3154 3154 3154 3154 3153 3153 3153 3152 3152 3152 3152 3151 3151 3151 3151 3151 3151 3150 3150 3150 3150 3150 3149 3149 3148 3148 3148 3148 3149 3149 3149 3149 3149 3148 3148 3147 3147 3147 3147 3148 3148 3147 3146 3146 3145 3144 3144 3143 3142 3141 3140 3139 3139 3139 3139 3138 3138 3138 3138 3138 3138 3138 3138 3138 3137 3137 3137 3137 3138
3152 3152 3152 3152 3153 3153 3153 3154 3154 3154 3153 3153 3153 3153 3153 3153 3153 3153 3152 3152 3152 3152 3152 3151 3151 3151 3151 3150 3150 3149 3149 3149 3148 3148 3148 3148 3148 3148 3148 3147 3147 3147 3147 3147 3147 3147 3147 3146 3146 3146 3145 3145 3145 3145 3145 3145 3144 3143 3142 3142 3141 3141 3140 3139 3139 3138 3137 3136 3136 3135 3135 3135 3135 3134 3134 3135 3134 3134 3134 3134 3133 3133 3134 3135 3136
3152 3152 3152 3152 3152 3152 3153 3153 3153 3153 3153 3153 3152 3152 3152 3152 3152 3151 3151 3151 3151 3151 3150 3150 3150 3149 3149 3149 3148 3148 3147 3147 3147 3147 3147 3147 3147 3146 3146 3146 3145 3145 3145 3145 3144 3144 3144 3144 3143 3143 3143 3143 3143 3143 3142 3142 3141 3140 3139 3139 3138 3138 3137 3136 3135 3135 3134 3133 3133 3132 3132 3132 3131 3131 3131 3130 3130 3130 3130 3129 3129 3130 3130 3131 3132
3151 3151 3151 3151 3151 3151 3152 3152 3152 3152 3152 3152 3151 3151 3151 3151 3151 3151 3150 3150 3150 3149 3149 3149 3148 3148 3148 3147 3147 3147 3146 3146 3145 3145 3145 3145 3145 3145 3144 3144 3143 3143 3143 3142 3142 3141 3141 3141 3141 3141 3140 3140 3140 3140 3139 3138 3138 3137 3136 3136 3136 3135 3134 3134 3133 3132 3131 3131 3130 3129 3129 3129 3128 3128 3128 3127 3126 3126 3126 3126 3127 3127 3128 3129 3129
3150 3150 3150 3150 3150 3150 3151 3151 3151 3150 3150 3150 3150 3150 3150 3150 3149 3149 3149 3149 3149 3148 3148 3147 3147 3147 3146 3146 3146 3146 3146 3145 3145 3144 3144 3144 3143 3143 3143 3142 3142 3141 3141 3140 3139 3139 3139 3138 3137 3137 3137 3136 3136 3135 3135 3135 3134 3134 3134 3133 3133 3133 3132 3131 3130 3130 3129 3128 3128 3127 3126 3126 3125 3125 3125 3124 3124 3123 3123 3124 3124 3125 3125 3126 3127
3149 3149 3149 3149 3149 3149 3149 3149 3149 3149 3149 3149 3149 3149 3149 3148 3148 3148 3148 3148 3148 3147 3147 3146 3146 3146 3145 3145 3145 3145 3144 3144 3144 3143 3143 3142 3142 3142 3141 3141 3140 3139 3139 3138 3137 3137 3136 3135 3135 3134 3134 3133 3133 3132 3131 3131 3131 3131 3130 3130 3129 3129 3129 3128 3128 3127 3126 3126 3125 3124 3124 3123 3123 3122 3122 3122 3122 3122 3122 3122 3122 3122 3123 3123 3124
3148 3148 3148 3148 3148 3148 3148 3148 3148 3148 3148 3147 3147 3147 3147 3147 3146 3146 3146 3147 3146 3146 3145 3145 3145 3144 3144 3144 3144 3143 3143 3143 3142 3142 3141 3141 3141 3140 3139 3139 3138 3138 3137 3136 3136 3135 3134 3133 3133 3132 3132 3131 3130 3129 3129 3128 3128 3128 3127 3127 3126 3126 3126 3125 3125 3125 3124 3124 3123 3123 3122 3122 3121 3121 3121 3121 3121 3121 3121 3120 3120 3120 3120 3121 3121
3147 3147 3147 3147 3147 3147 3147 3146 3146 3146 3146 3146 3146 3145 3145 3145 3144 3144 3145 3145 3145 3144 3144 3144 3143 3143 3143 3142 3142 3142 3141 3141 3140 3140 3140 3139 3139 3138 3137 3137 3136 3136 3135 3134 3134 3133 3132 3132 3131 3130 3130 3129 3128 3127 3127 3126 3126 3126 3125 3124 3124 3124 3124 3123 3123 3123 3123 3122 3122 3122 3121 3121 3120 3119 3119 3119 3119 3118 3118 3118 3118 3118 3118 3118 3118
3146 3146 3146 3146 3146 3146 3146 3145 3145 3145 3145 3145 3144 3144 3144 3143 3143 3142 3142 3142 3142 3142 3142 3142 3142 3141 3141 3141 3140 3140 3139 3139 3138 3138 3137 3137 3136 3136 3135 3135 3134 3134 3133 3133 3132 3131 3130 3130 3129 3129 3128 3127 3127 3126 3125 3125 3124 3124 3123 3123 3122 3122 3122 3122 3122 3121 3121 3121 3121 3120 3120 3119 3119 3118 3117 3117 3116 3116 3116 3116 3116 3116 3115 3115 3115
3145 3145 3145 3145 3145 3145 3145 3144 3144 3144 3144 3144 3143 3143 3143 3142 3142 3141 3140 3140 3139 3139 3139 3140 3140 3140 3139 3139 3138 3138 3137 3136 3136 3135 3135 3135 3134 3133 3133 3133 3132 3131 3131 3131 3130 3129 3129 3128 3127 3127 3126 3126 3125 3125 3124 3123 3123 3122 3121 3121 3121 3121 3120 3120 3120 3120 3119 3119 3119 3118 3118 3118 3117 3116 3116 3115 3115 3114 3114 3114 3114 3113 3113 3112 3112
3144 3144 3143 3143 3143 3143 3143 3143 3143 3143 3143 3142 3142 3142 3142 3141 3141 3140 3139 3139 3138 3137 3136 3136 3136 3136 3136 3137 3136 3135 3134 3134 3134 3134 3133 3133 3132 3131 3131 3131 3130 3129 3129 3128 3128 3127 3127 3126 3125 3125 3124 3124 3123 3123 3122 3122 3121 3121 3120 3120 3119 3119 3119 3119 3119 3118 3117 3117 3116 3116 3116 3115 3115 3115 3114 3114 3113 3113 3112 3112 3111 3111 3111 3110 3110
3143 3142 3142 3142 3141 3141 3141 3141 3141 3141 3141 3141 3141 3141 3140 3140 3140 3139 3139 3138 3137 3136 3135 3134 3133 3132 3133 3134 3134 3133 3132 3131 3131 3131 3131 3131 3130 3129 3129 3128 3128 3128 3127 3126 3125 3125 3124 3124 3123 3122 3122 3121 3121 3121 3120 3120 3119 3119 3118 3118 3117 3117 3117 3117 3117 3116 3116 3115 3115 3114 3114 3113 3113 3112 3112 3112 3111 3110 3110 3109 3109 3109 3108 3108 3108
3140 3140 3140 3140 3140 3139 3139 3139 3139 3139 3139 3139 3139 3139 3139 3138 3138 3137 3137 3136 3135 3135 3134 3134 3132 3131 3130 3131 3132 3131 3130 3129 3128 3127 3128 3128 3128 3127 3127 3126 3125 3125 3124 3124 3123 3123 3122 3121 3121 3120 3120 3119 3119 3118 3118 3117 3117 3116 3116 3115 3115 3115 3114 3114 3114 3114 3113 3113 3112 3112 3111 3110 3110 3109 3109 3108 3108 3107 3107 3106 3106 3106 3105 3105 3105
3137 3137 3137 3138 3137 3137 3137 3137 3137 3137 3137 3137 3137 3136 3136 3136 3135 3135 3134 3133 3133 3132 3132 3131 3130 3130 3129 3129 3129 3129 3128 3127 3125 3124 3124 3124 3125 3125 3124 3123 3122 3121 3121 3121 3121 3120 3119 3119 3119 3118 3118 3117 3116 3116 3115 3115 3115 3114 3114 3113 3112 3112 3112 3111 3111 3111 3110 3109 3109 3108 3108 3107 3107 3106 3106 3105 3105 3104 3103 3103 3103 3102 3102 3102 3101
3135 3135 3135 3135 3135 3134 3134 3134 3134 3134 3134 3134 3134 3133 3133 3133 3132 3132 3131 3131 3130 3130 3130 3129 3127 3127 3128 3128 3128 3127 3126 3125 3123 3121 3120 3120 3120 3121 3121 3120 3119 3119 3119 3119 3118 3117 3117 3117 3116 3115 3115 3114 3114 3114 3113 3113 3112 3111 3111 3110 3110 3109 3109 3108 3108 3107 3107 3106 3106 3105 3105 3104 3104 3103 3102 3102 3101 3101 3100 3100 3099 3098 3098 3098 3097
3133 3132 3132 3132 3132 3132 3132 3131 3131 3131 3131 3130 3130 3130 3129 3129 3129 3128 3128 3128 3127 3127 3127 3126 3124 3124 3125 3126 3125 3125 3124 3123 3122 3120 3118 3117 3116 3117 3116 3115 3114 3115 3116 3116 3115 3115 3115 3114 3113 3111 3111 3111 3111 3111 3110 3110 3109 3108 3108 3107 3106 3106 3105 3105 3105 3104 3103 3102 3101 3101 3101 3101 3100 3099 3098 3098 3097 3097 3096 3095 3095 3095 3094 3093 3093
3130 3130 3129 3129 3129 3129 3129 3129 3128 3128 3127 3127 3127 3126 3126 3126 3125 3125 3125 3124 3124 3124 3124 3124 3122 3121 3122 3123 3122 3122 3122 3121 3120 3118 3117 3115 3114 3113 3112 3111 3111 3111 3112 3112 3112 3112 3112 3111 3109 3107 3107 3108 3108 3108 3108 3107 3105 3104 3104 3103 3103 3102 3102 3101 3101 3100 3099 3098 3097 3097 3097 3097 3096 3094 3093 3093 3093 3092 3091 3091 3091 3090 3090 3089 3088
3128 3127 3127 3127 3126 3126 3126 3126 3126 3125 3125 3125 3124 3124 3123 3123 3123 3122 3122 3121 3121 3121 3121 3121 3120 3118 3119 3120 3120 3119 3119 3118 3117 3116 3115 3113 3112 3110 3109 3109 3109 3109 3108 3108 3108 3108 3108 3107 3105 3103 3103 3103 3104 3104 3104 3103 3102 3101 3099 3099 3099 3098 3098 3097 3096 3096 3095 3094 3093 3093 3092 3092 3091 3090 3090 3089 3089 3088 3087 3086 3086 3086 3085 3084 3084
3125 3125 3125 3124 3124 3124 3124 3123 3123 3122 3122 3122 3121 3121 3121 3120 3120 3119 3119 3118 3118 3118 3118 3118 3118 3116 3116 3117 3117 3116 3116 3116 3114 3113 3112 3111 3109 3108 3107 3107 3106 3106 3106 3106 3105 3105 3104 3104 3102 3101 3100 3099 3099 3099 3099 3098 3098 3098 3097 3095 3094 3093 3093 3092 3091 3091 3091 3090 3089 3088 3088 3087 3087 3086 3085 3085 3084 3084 3083 3082 3082 3081 3081 3080 3080
3123 3123 3122 3122 3122 3121 3121 3121 3120 3120 3119 3119 3118 3118 3117 3117 3117 3116 3116 3115 3115 3115 3115 3115 3115 3114 3113 3113 3113 3113 3113 3112 3111 3110 3109 3108 3107 3105 3104 3103 3103 3103 3103 3103 3102 3101 3101 3101 3100 3098 3097 3096 3096 3095 3094 3093 3092 3093 3093 3092 3090 3089 3088 3087 3086 3086 3085 3085 3085 3084 3083 3083 3082 3082 3081 3081 3080 3079 3079 3078 3077 3077 3077 3076 3076
3120 3120 3120 3119 3119 3119 3118 3118 3117 3117 3116 3116 3115 3115 3114 3113 3113 3113 3113 3113 3113 3113 3112 3112 3111 3111 3111 3110 3109 3109 3109 3109 3107 3106 3105 3105 3104 3102 3101 3100 3101 3101 3101 3100 3099 3097 3097 3097 3096 3095 3094 3093 3093 3092 3090 3088 3087 3088 3088 3087 3086 3085 3084 3082 3082 3081 3081 3080 3080 3079 3079 3078 3078 3077 3076 3076 3076 3075 3074 3073 3073 3072 3072 3072 3071
3117 3117 3117 3117 3116 3116 3115 3115 3114 3114 3113 3113 3112 3112 3111 3110 3110 3110 3110 3110 3110 3109 3109 3108 3108 3108 3108 3107 3106 3106 3106 3105 3104 3103 3102 3100 3099 3098 3098 3098 3098 3098 3097 3096 3095 3094 3093 3092 3091 3090 3090 3089 3088 3087 3086 3084 3083 3083 3082 3082 3081 3080 3079 3078 3077 3077 3076 3076 3075 3075 3074 3073 3073 3072 3072 3072 3071 3071 3070 3069 3069 3069 3068 3068 3067
3115 3114 3114 3114 3113 3113 3112 3112 3112 3111 3110 3110 3110 3109 3109 3108 3108 3107 3107 3107 3106 3106 3105 3105 3105 3105 3105 3104 3104 3103 3103 3102 3101 3100 3098 3096 3095 3094 3094 3094 3094 3094 3094 3093 3091 3089 3087 3086 3086 3085 3085 3083 3082 3081 3080 3079 3078 3077 3077 3076 3075 3075 3074 3073 3072 3072 3071 3070 3070 3070 3069 3069 3068 3068 3067 3067 3066 3066 3066 3065 3065 3064 3064 3064 3063
3112 3111 3111 3111 3110 3110 3110 3109 3109 3108 3107 3107 3107 3107 3106 3105 3105 3105 3104 3104 3103 3103 3102 3102 3101 3101 3101 3101 3101 3100 3099 3098 3097 3096 3095 3093 3092 3091 3090 3089 3089 3089 3089 3089 3088 3085 3083 3081 3080 3080 3080 3079 3077 3076 3075 3074 3073 3072 3071 3070 3070 3069 3068 3068 3067 3067 3066 3066 3065 3065 3064 3064 3064 3063 3063 3062 3061 3061 3061 3061 3061 3061 3060 3059 3059
3109 3109 3109 3108 3108 3107 3107 3107 3106 3106 3105 3105 3104 3104 3103 3102 3102 3102 3101 3101 3100 3100 3099 3099 3098 3097 3097 3097 3097 3096 3095 3095 3094 3092 3091 3090 3089 3088 3087 3086 3084 3084 3084 3084 3084 3082 3080 3078 3077 3076 3075 3074 3073 3072 3071 3070 3069 3068 3066 3065 3064 3064 3064 3063 3063 3062 3062 3061 3061 3061 3060 3060 3059 3059 3059 3058 3057 3057 3057 3057 3057 3057 3056 3056 3055